TimeCDT,TemperatureF,Dew PointF,Humidity,Sea Level PressureIn,VisibilityMPH,Wind Direction,Wind SpeedMPH,Gust SpeedMPH,PrecipitationIn,Events,Conditions,WindDirDegrees,DateUTC
12:15 AM,34.7,32.7,92,29.89,10.0,West,4.6,-,N/A,,Clear,280,2012-10-15 05:15:00
12:35 AM,34.2,32.7,94,29.89,10.0,West,4.6,-,N/A,,Clear,280,2012-10-15 05:35:00
12:55 AM,34.0,32.0,92,29.89,10.0,West,3.5,-,N/A,,Clear,280,2012-10-15 05:55:00
1:15 AM,32.7,31.3,94,29.89,10.0,Calm,Calm,-,N/A,,Clear,0,2012-10-15 06:15:00
1:35 AM,32.2,31.1,96,29.90,10.0,Calm,Calm,-,N/A,,Clear,0,2012-10-15 06:35:00
1:55 AM,31.8,30.7,96,29.90,10.0,Calm,Calm,-,N/A,,Clear,0,2012-10-15 06:55:00
2:15 AM,31.6,30.7,96,29.90,10.0,Calm,Calm,-,N/A,,Clear,0,2012-10-15 07:15:00
2:35 AM,30.2,29.1,96,29.89,10.0,Calm,Calm,-,N/A,,Clear,0,2012-10-15 07:35:00
2:55 AM,29.3,28.4,96,29.89,10.0,Calm,Calm,-,N/A,,Clear,0,2012-10-15 07:55:00
3:15 AM,28.9,27.9,96,29.89,10.0,Calm,Calm,-,N/A,,Clear,0,2012-10-15 08:15:00
3:35 AM,29.5,28.4,96,29.89,10.0,Calm,Calm,-,N/A,,Clear,0,2012-10-15 08:35:00
3:55 AM,28.9,27.5,94,29.89,10.0,Calm,Calm,-,N/A,,Clear,0,2012-10-15 08:55:00
4:15 AM,28.2,27.1,96,29.89,10.0,Calm,Calm,-,N/A,,Clear,0,2012-10-15 09:15:00
4:55 AM,28.4,28.2,99,29.88,0.8,Calm,Calm,-,N/A,,Mostly Cloudy,0,2012-10-15 09:55:00
5:15 AM,27.9,27.7,99,29.88,0.2,Calm,Calm,-,N/A,Fog,Light Freezing Fog,0,2012-10-15 10:15:00
5:35 AM,27.5,27.3,99,29.89,0.5,Calm,Calm,-,N/A,Fog,Light Freezing Fog,0,2012-10-15 10:35:00
5:55 AM,28.6,27.9,97,29.89,7.0,Calm,Calm,-,N/A,,Clear,0,2012-10-15 10:55:00
6:15 AM,29.5,29.3,99,29.88,0.2,Calm,Calm,-,N/A,Fog,Light Freezing Fog,0,2012-10-15 11:15:00
6:35 AM,27.3,27.0,99,29.88,1.2,Calm,Calm,-,N/A,,Mist,0,2012-10-15 11:35:00
7:15 AM,28.8,28.6,99,29.88,0.8,Calm,Calm,-,N/A,,Mist,0,2012-10-15 12:15:00
7:35 AM,27.7,27.5,99,29.89,0.2,Calm,Calm,-,N/A,Fog,Light Freezing Fog,0,2012-10-15 12:35:00
7:55 AM,27.3,27.3,100,29.88,0.2,Calm,Calm,-,N/A,Fog,Light Freezing Fog,0,2012-10-15 12:55:00
8:15 AM,26.2,25.9,99,29.89,0.5,Calm,Calm,-,N/A,Fog,Light Freezing Fog,0,2012-10-15 13:15:00
8:35 AM,28.6,27.9,97,29.89,7.0,Calm,Calm,-,N/A,,Clear,0,2012-10-15 13:35:00
8:55 AM,31.1,30.6,98,29.89,5.0,Calm,Calm,-,N/A,,Clear,0,2012-10-15 13:55:00
9:15 AM,35.1,33.6,94,29.90,10.0,SW,5.8,-,N/A,,Clear,220,2012-10-15 14:15:00
9:35 AM,36.9,34.3,91,29.89,10.0,South,3.5,-,N/A,,Clear,180,2012-10-15 14:35:00
9:55 AM,40.1,36.1,86,29.88,10.0,South,4.6,-,N/A,,Clear,170,2012-10-15 14:55:00
10:15 AM,43.3,36.7,77,29.88,10.0,SSE,4.6,-,N/A,,Clear,160,2012-10-15 15:15:00
10:35 AM,46.0,37.0,71,29.88,10.0,SSE,5.8,-,N/A,,Clear,160,2012-10-15 15:35:00
10:55 AM,48.0,37.8,68,29.87,10.0,South,5.8,-,N/A,,Clear,170,2012-10-15 15:55:00
11:15 AM,49.5,37.8,64,29.87,10.0,South,8.1,-,N/A,,Clear,180,2012-10-15 16:15:00
11:35 AM,51.4,37.9,60,29.87,10.0,SSE,6.9,-,N/A,,Clear,160,2012-10-15 16:35:00
11:55 AM,52.7,38.3,58,29.85,10.0,SSE,5.8,-,N/A,,Clear,160,2012-10-15 16:55:00
12:15 PM,53.4,38.5,57,29.85,10.0,SSE,8.1,-,N/A,,Clear,150,2012-10-15 17:15:00
12:35 PM,55.0,38.7,54,29.84,10.0,SSE,8.1,-,N/A,,Clear,160,2012-10-15 17:35:00
12:55 PM,54.9,38.3,54,29.83,10.0,SSE,10.4,-,N/A,,Clear,160,2012-10-15 17:55:00
1:15 PM,55.0,38.3,53,29.82,10.0,SSE,10.4,-,N/A,,Scattered Clouds,160,2012-10-15 18:15:00
1:35 PM,56.1,38.3,51,29.80,10.0,SSE,11.5,-,N/A,,Mostly Cloudy,160,2012-10-15 18:35:00
1:55 PM,55.9,37.9,51,29.80,10.0,South,10.4,-,N/A,,Overcast,170,2012-10-15 18:55:00
2:15 PM,56.1,37.9,51,29.79,10.0,South,11.5,-,N/A,,Mostly Cloudy,170,2012-10-15 19:15:00
2:35 PM,56.3,37.9,50,29.78,10.0,SSE,12.7,-,N/A,,Overcast,160,2012-10-15 19:35:00
2:55 PM,56.3,37.8,50,29.77,10.0,South,9.2,-,N/A,,Overcast,180,2012-10-15 19:55:00
3:15 PM,55.8,37.8,51,29.77,10.0,SSE,12.7,-,N/A,,Overcast,160,2012-10-15 20:15:00
3:35 PM,54.3,38.8,56,29.76,10.0,SSE,9.2,-,N/A,,Light Drizzle,160,2012-10-15 20:35:00
3:55 PM,53.8,39.0,57,29.75,10.0,SE,9.2,-,N/A,,Overcast,140,2012-10-15 20:55:00
4:15 PM,54.1,38.8,56,29.75,10.0,SE,10.4,-,N/A,,Overcast,140,2012-10-15 21:15:00
4:35 PM,54.5,39.2,56,29.74,10.0,SE,10.4,-,N/A,,Drizzle,140,2012-10-15 21:35:00
4:55 PM,54.3,40.1,59,29.73,10.0,SE,11.5,-,N/A,,Light Drizzle,130,2012-10-15 21:55:00
5:15 PM,54.0,39.4,58,29.73,10.0,SE,10.4,-,N/A,,Overcast,130,2012-10-15 22:15:00
5:35 PM,53.8,38.8,57,29.71,10.0,SE,12.7,-,N/A,,Overcast,130,2012-10-15 22:35:00
5:55 PM,53.8,38.7,57,29.71,10.0,SE,11.5,-,N/A,,Overcast,140,2012-10-15 22:55:00
6:15 PM,53.2,38.7,58,29.69,10.0,SE,12.7,-,N/A,,Overcast,140,2012-10-15 23:15:00
6:35 PM,52.5,38.5,59,29.68,10.0,SE,11.5,-,N/A,,Overcast,130,2012-10-15 23:35:00
6:55 PM,52.2,38.3,59,29.68,10.0,SE,10.4,-,N/A,,Overcast,140,2012-10-15 23:55:00
7:15 PM,51.8,38.3,60,29.68,10.0,SE,8.1,-,N/A,,Overcast,140,2012-10-16 00:15:00
7:35 PM,51.6,38.1,60,29.67,10.0,SSE,9.2,-,N/A,,Overcast,150,2012-10-16 00:35:00
7:55 PM,52.2,37.6,58,29.67,10.0,SSE,8.1,-,N/A,,Overcast,160,2012-10-16 00:55:00
8:15 PM,52.3,37.4,57,29.67,10.0,SSE,8.1,-,N/A,,Overcast,160,2012-10-16 01:15:00
8:35 PM,52.2,37.4,57,29.66,10.0,SSE,6.9,-,N/A,,Overcast,150,2012-10-16 01:35:00
8:55 PM,52.0,37.4,58,29.66,10.0,SSE,9.2,-,N/A,,Overcast,160,2012-10-16 01:55:00
9:15 PM,52.5,36.9,55,29.65,10.0,SSE,10.4,-,N/A,,Overcast,160,2012-10-16 02:15:00
9:35 PM,53.4,36.7,53,29.64,10.0,South,12.7,18.4,N/A,,Overcast,170,2012-10-16 02:35:00
9:55 PM,53.4,36.7,53,29.64,10.0,SSE,9.2,-,N/A,,Mostly Cloudy,160,2012-10-16 02:55:00
10:15 PM,53.4,36.9,53,29.63,10.0,South,9.2,-,N/A,,Overcast,170,2012-10-16 03:15:00
10:35 PM,53.2,36.9,54,29.63,10.0,South,10.4,-,N/A,,Mostly Cloudy,170,2012-10-16 03:35:00
10:55 PM,53.2,36.9,54,29.61,10.0,South,10.4,-,N/A,,Scattered Clouds,170,2012-10-16 03:55:00
11:15 PM,53.6,36.7,53,29.60,10.0,SSE,8.1,-,N/A,,Scattered Clouds,160,2012-10-16 04:15:00
11:35 PM,53.6,36.9,53,29.60,10.0,South,10.4,-,N/A,,Mostly Cloudy,170,2012-10-16 04:35:00
11:55 PM,53.6,36.9,53,29.59,10.0,South,9.2,-,N/A,,Mostly Cloudy,170,2012-10-16 04:55:00